Vertical_Velocity
1 1 -3 -1 1 -1 -1 -0 -2 -4 -1 -0 -2 -2 -0 -1 0 -4 4 4 -1 6 0 -2 -1 -0 -4 -6 -2 0 1 -0 2 2 -0 -3 -1 -4 -6 -5 -1 -2 2 1 1 3 2 5 4 -0 -3 -2 -1 0
1 0 -1 -1 1 -0 -0 -0 -1 -3 0 -0 -2 0 1 -1 -2 -3 -3 -2 -1 -1 -3 0 -5 -1 -0 -3 -1 -5 -2 -5 -3 -0 -1 -0 1 -1 -3 -7 -3 -2 3 -3 -1 2 0 1 4 -3 -4 -5 1 -3
0 -1 -0 -0 1 -0 -0 0 -3 -0 -1 -1 -2 1 -0 -1 -4 -0 -3 0 3 -3 -5 1 -0 -3 -3 -3 0 1 1 3 1 1 -1 -3 -2 1 -4 -3 -2 -4 1 0 5 -0 -1 -4 3 -1 -1 0 -4 -2
-1 0 -0 -1 0 1 1 -1 -4 -0 -2 -2 -1 1 -1 0 -3 -3 -3 0 2 2 -0 1 -4 -1 -3 -3 -0 1 -1 -2 1 0 -1 -3 -2 -1 -4 -3 -4 -0 -1 -1 -7 -3 -2 -0 1 -1 1 4 -1 0
2 -0 0 -1 -1 0 1 -4 -3 -1 -1 -1 -1 0 -2 -1 -3 -3 -3 -2 -3 -5 -3 5 5 -1 -4 -3 1 -0 -1 1 1 1 -1 -2 -0 -0 -3 -1 -1 -3 -2 -3 -5 -3 0 -0 1 0 1 1 -0 1
2 1 0 -3 -1 1 -0 -4 -1 -1 0 -1 -1 -1 -1 -3 -5 -0 7 -2 -1 -5 -3 -3 1 1 -3 -0 2 2 -2 -0 2 1 -1 0 -3 -1 -3 -1 -2 -2 -3 -6 -6 -2 -2 1 1 -1 5 -2 3 6
0 1 -1 -2 -1 0 -4 -3 -2 0 -1 -3 -0 -1 -2 -2 -3 -2 -0 -3 -4 1 3 -4 1 -1 -2 -0 0 1 1 4 1 1 -2 -2 -1 -1 -2 -4 -1 -1 -1 -4 -5 -5 -1 1 -1 5 0 2 2 2
2 -0 -1 -0 2 -1 -3 -2 -1 -0 -3 -1 1 -1 -3 -3 -1 -2 0 -0 -3 1 1 0 1 -2 -1 1 1 -1 -1 1 -1 -2 -2 -1 -0 -1 -2 -2 -3 -4 -2 -1 -4 -2 -0 1 2 3 3 4 4 3
0 -2 -1 0 1 -4 -0 -1 -1 -3 -3 2 -2 -2 -2 -3 -1 -0 -3 2 -3 -0 2 -1 -1 -2 1 2 1 -1 -1 -2 -2 -4 -1 2 -1 -1 -1 -1 -1 -2 1 0 -0 -2 -2 -2 1 1 0 3 2 4
-1 -0 -2 -1 -3 -1 1 -1 -2 -3 -0 -1 -4 -2 1 1 -1 1 -1 -2 -2 -3 5 -2 -2 -0 1 2 1 -1 -1 -2 -3 -3 -3 -2 -2 -0 0 0 -1 -2 -0 -1 2 3 2 -5 3 2 2 -1 -2 -1
-0 -1 -1 -4 -2 -1 -1 -0 -0 -2 -1 -6 -2 0 -0 0 1 -1 -1 -0 1 -1 1 -3 -0 0 3 1 0 -0 -2 -2 -2 -3 1 -4 -2 -0 1 1 2 2 2 2 3 1 1 -1 0 -1 3 -1 -1 1
0 -1 -3 -4 -1 -2 -2 -2 -1 -0 -5 -3 -2 -4 -1 -3 -1 1 1 -1 1 3 -4 -4 1 1 2 2 -0 1 -1 -1 -0 2 2 -1 -1 -0 2 4 5 4 3 4 2 1 3 4 -0 -1 0 -1 3 3
1 -3 -4 -1 -4 -0 -1 -1 -1 -4 -4 -1 -2 -0 -0 -3 -1 -2 3 6 -0 2 -3 -1 -0 1 2 2 1 1 0 -1 -0 3 2 -0 -5 -1 3 5 6 4 5 6 3 2 0 -3 -2 1 0 1 3 3
-2 -3 -3 -3 -2 -1 -1 -0 -5 -3 -1 -3 -2 -2 3 -3 1 -0 1 -0 1 0 -0 -0 -1 1 1 2 1 1 1 -2 2 1 2 2 -0 4 5 6 4 3 2 -0 2 0 -2 0 2 3 4 1 3 1
-3 -2 -5 -1 -1 0 -3 -3 -3 -3 -4 0 1 -8 -2 -3 0 0 1 1 -1 -0 2 -0 -0 1 1 2 1 3 1 -1 -1 2 0 2 -0 4 4 2 2 3 3 4 1 2 -1 -0 3 3 5 6 5 3
-3 -3 -2 0 -1 -3 -3 -2 -3 -4 -3 -4 1 -2 0 -0 -4 -1 -1 1 -0 2 1 -1 0 1 1 2 1 2 1 -1 -1 -2 1 1 4 2 1 1 2 2 3 1 6 2 -2 1 2 -0 5 3 1 1
0 -3 -1 -2 -4 -3 -3 -5 -3 0 -9 -3 -3 1 -0 2 -4 -2 -1 -0 1 2 -1 -1 1 1 1 2 1 2 0 -0 -1 -3 2 1 3 3 1 2 3 3 1 1 3 1 -2 1 1 2 4 1 1 0
-3 1 -2 -3 -3 -5 -0 -8 -4 -1 -5 -4 -1 -3 -2 1 1 -2 -1 -0 0 1 -1 -0 1 1 0 2 1 2 -0 -0 -1 -1 -0 3 2 1 1 1 -0 1 2 4 3 3 1 2 2 3 2 1 0 -1
0 -4 -4 -4 -5 -4 -7 -1 -5 -4 -3 -0 -1 -6 -8 -2 1 -2 -2 -0 0 0 -1 1 1 -0 1 1 1 2 1 -1 -1 1 0 3 2 2 2 2 1 2 4 1 -1 1 1 -1 1 1 1 0 -1 -1
-4 -4 -5 -4 -5 -8 -5 -5 -6 -4 1 -2 -4 -3 -5 -5 -1 -2 -1 0 0 -0 -0 1 0 -0 1 1 1 2 1 0 -1 2 1 1 3 3 1 3 2 -0 -1 1 4 4 3 1 1 1 1 -0 0 1
-6 -4 -3 -5 -6 -8 -4 -8 -5 -4 -3 -3 0 -1 -5 -3 -1 -2 -1 -0 -0 0 -0 1 1 -0 0 1 0 0 2 1 1 2 2 1 -0 3 2 4 4 3 3 3 3 2 2 1 1 3 2 1 0 -0
-4 -6 -4 -5 -0 -3 -5 -4 -9 1 0 -3 -2 -3 -3 -3 -1 -1 -2 0 -0 0 -0 -0 0 0 -0 1 1 1 1 3 2 2 1 0 2 1 2 2 3 1 2 2 1 -0 -1 -0 1 2 3 3 3 1
-5 -2 -2 -4 -3 -4 -9 -7 -1 1 1 -0 -2 -1 -2 -2 -3 -1 -1 -0 1 0 -1 -0 1 1 0 0 1 2 1 2 4 3 2 1 -0 1 1 2 1 1 2 2 2 2 2 1 1 0 -1 0 -0 -2
-2 -4 -4 -7 -4 -7 -8 -3 1 -3 2 0 -2 -3 -2 -2 -3 -2 -2 1 1 1 1 1 1 2 2 2 2 2 2 3 3 1 1 2 2 4 4 2 1 1 2 2 1 -2 -2 -1 -2 -0 0 -0 0 -0
-7 -5 -2 -3 -6 -4 -4 -1 -2 -4 -2 -2 -3 -1 -2 -1 -2 -4 -3 0 2 1 1 1 2 2 2 2 2 2 2 1 1 1 0 -0 -1 1 2 1 1 2 1 -1 -0 2 2 1 2 2 1 -0 -1 -1
-4 -3 -11 -2 0 -4 -5 -3 -4 -4 -4 -3 -2 -2 -1 -1 -2 -1 -1 1 2 2 2 2 2 2 3 3 2 2 1 1 -0 0 0 0 1 1 2 2 2 1 1 1 0 -1 -1 -0 -0 -0 -1 -1 -2 -2
2 -2 -7 -0 -1 -3 -3 -5 -5 -4 -3 -3 -2 -2 -2 -2 -0 0 0 1 1 1 1 1 2 2 1 2 1 1 1 1 0 0 1 0 1 0 1 0 1 2 0 0 1 1 1 1 1 1 0 -0 -0 -1
-4 -5 -5 -3 -2 -3 -5 -6 -3 -3 -3 -3 -3 -4 -2 -1 0 0 1 0 0 0 -0 -0 1 1 1 1 1 1 1 1 1 1 1 2 2 1 3 3 3 2 0 0 1 1 0 -0 -1 -1 -0 -0 -1 -1
-3 -4 -3 -1 -2 -5 -5 -4 -3 -2 -3 -4 -3 -2 -1 -0 -0 0 1 0 1 1 0 0 -0 -1 -0 0 1 1 1 1 1 1 0 1 1 1 2 2 1 -1 -1 0 1 1 0 -1 -1 -1 -2 -2 -3 -4
-0 -1 -0 -2 -4 -3 -3 -4 -2 -2 -3 -3 -1 -1 -0 -1 -1 0 0 1 1 0 0 1 1 1 0 -0 -1 -1 -0 0 0 -0 0 0 1 1 1 2 3 2 1 1 0 -1 -1 -1 -1 -1 -2 -2 -2 -3
0 -0 -2 -2 -2 -2 -1 -1 -2 -1 -1 -1 -1 -0 -0 -0 -0 -1 -1 -1 -0 1 2 2 1 0 1 1 1 1 1 0 -0 -0 -1 -1 -0 -0 -0 0 1 2 2 3 2 1 0 -1 -1 -2 -2 -3 -2 -3
0 -1 -2 -1 -1 -0 -1 -1 -0 -0 -0 -0 -0 -1 0 -0 -1 -1 -1 -2 -1 -1 -0 2 2 1 0 0 1 1 1 1 1 1 1 0 0 0 -0 -0 0 0 -0 -0 -1 -1 -1 -2 -2 -2 -3 -3 -4 -5
-1 -0 -0 -0 -0 -0 1 0 1 1 -0 0 -0 0 0 -1 -1 -1 -1 -1 -1 -1 -1 0 2 3 2 1 1 1 1 1 0 1 1 1 1 1 0 1 -0 1 -0 -1 -1 -1 -2 -3 -3 -4 -4 -4 -4 -3
Height
5680 5675 5672 5668 5663 5658 5650 5643 5637 5630 5623 5615 5606 5595 5583 5572 5560 5546 5532 5515 5500 5485 5477 5472 5469 5466 5460 5453 5446 5441 5438 5434 5430 5426 5424 5421 5418 5415 5414 5411 5409 5409 5410 5413 5418 5423 5429 5430 5437 5441 5445 5449 5453 5456
5671 5668 5664 5661 5655 5649 5641 5635 5628 5623 5615 5607 5597 5587 5576 5564 5552 5539 5523 5509 5494 5483 5476 5470 5466 5464 5459 5451 5445 5439 5435 5430 5426 5421 5420 5419 5417 5415 5414 5413 5412 5412 5412 5415 5419 5425 5429 5432 5438 5442 5446 5450 5453 5455
5663 5659 5656 5652 5648 5641 5634 5627 5621 5616 5608 5600 5590 5580 5569 5557 5544 5532 5518 5504 5489 5477 5471 5467 5464 5461 5456 5449 5443 5439 5434 5428 5422 5418 5416 5416 5415 5414 5412 5413 5412 5412 5412 5415 5419 5424 5430 5435 5439 5442 5446 5450 5452 5455
5654 5651 5648 5645 5640 5634 5627 5620 5615 5608 5600 5591 5582 5572 5561 5549 5537 5525 5511 5497 5485 5474 5467 5462 5460 5457 5453 5446 5440 5434 5430 5423 5419 5415 5412 5412 5412 5412 5410 5410 5411 5410 5412 5414 5418 5425 5431 5434 5439 5443 5447 5451 5453 5455
5645 5643 5640 5636 5631 5624 5618 5612 5606 5599 5591 5583 5574 5563 5553 5541 5530 5517 5502 5489 5478 5470 5464 5459 5456 5454 5449 5443 5438 5433 5425 5421 5415 5411 5409 5408 5407 5407 5407 5407 5408 5409 5411 5414 5418 5424 5428 5434 5439 5444 5449 5451 5453 5456
5637 5634 5630 5627 5622 5615 5610 5604 5598 5591 5583 5574 5565 5555 5544 5533 5522 5510 5498 5482 5471 5464 5458 5456 5454 5450 5445 5440 5436 5431 5424 5417 5412 5407 5404 5402 5402 5402 5403 5403 5405 5407 5409 5412 5418 5424 5430 5435 5440 5446 5449 5451 5454 5456
5627 5625 5621 5618 5613 5606 5602 5596 5590 5582 5575 5567 5557 5547 5536 5524 5513 5501 5490 5479 5467 5459 5454 5451 5450 5446 5441 5437 5432 5428 5422 5416 5410 5404 5400 5397 5396 5396 5397 5399 5402 5404 5407 5411 5418 5425 5431 5436 5442 5446 5449 5452 5454 5456
5619 5617 5612 5608 5604 5598 5594 5589 5582 5574 5567 5558 5548 5537 5526 5516 5504 5492 5480 5470 5460 5454 5449 5447 5446 5442 5438 5434 5430 5425 5419 5413 5408 5403 5398 5393 5391 5390 5391 5393 5396 5399 5403 5410 5418 5426 5433 5439 5442 5446 5449 5452 5453 5456
5611 5608 5603 5599 5594 5590 5585 5580 5573 5567 5558 5548 5539 5528 5517 5507 5495 5484 5471 5463 5454 5451 5445 5444 5441 5437 5435 5433 5428 5423 5418 5412 5407 5402 5396 5392 5388 5387 5388 5390 5393 5398 5403 5410 5418 5427 5434 5440 5444 5448 5450 5452 5454 5457
5603 5599 5595 5590 5585 5581 5576 5571 5565 5557 5549 5538 5529 5520 5508 5499 5486 5476 5463 5456 5450 5445 5441 5440 5436 5434 5434 5431 5427 5423 5418 5413 5407 5404 5398 5393 5390 5388 5388 5390 5394 5398 5404 5412 5420 5430 5437 5442 5446 5449 5451 5453 5455 5458
5595 5590 5586 5582 5578 5573 5567 5563 5556 5547 5538 5529 5520 5510 5498 5487 5476 5465 5457 5450 5443 5440 5439 5435 5432 5432 5432 5430 5426 5422 5418 5414 5410 5407 5403 5399 5396 5394 5394 5395 5398 5402 5408 5417 5426 5435 5441 5444 5447 5450 5452 5454 5457 5460
5585 5582 5578 5574 5570 5564 5560 5553 5546 5537 5527 5518 5508 5496 5487 5477 5466 5458 5449 5442 5438 5435 5433 5430 5429 5429 5429 5428 5425 5422 5419 5417 5414 5411 5407 5405 5404 5401 5400 5402 5405 5409 5416 5424 5432 5438 5442 5446 5448 5451 5453 5456 5459 5461
5576 5573 5569 5566 5561 5556 5551 5543 5536 5526 5517 5506 5496 5486 5476 5466 5456 5448 5442 5436 5432 5430 5428 5425 5425 5427 5427 5426 5424 5423 5420 5419 5417 5416 5412 5410 5409 5407 5408 5409 5412 5416 5422 5428 5435 5441 5445 5448 5451 5452 5453 5456 5459 5462
5568 5565 5562 5558 5553 5548 5540 5533 5525 5514 5504 5493 5484 5474 5465 5454 5446 5440 5434 5429 5426 5423 5422 5421 5422 5424 5425 5425 5423 5423 5422 5421 5421 5420 5417 5416 5415 5414 5414 5415 5418 5422 5428 5434 5440 5445 5449 5451 5452 5454 5455 5458 5461 5464
5560 5557 5554 5549 5544 5537 5530 5522 5512 5501 5492 5482 5471 5463 5452 5445 5438 5432 5426 5422 5418 5418 5418 5418 5419 5422 5423 5423 5423 5423 5423 5422 5423 5424 5423 5420 5421 5420 5421 5423 5426 5430 5435 5439 5445 5449 5452 5455 5456 5458 5460 5462 5464 5466
5553 5551 5546 5540 5534 5527 5519 5510 5499 5489 5479 5472 5461 5452 5444 5436 5430 5424 5420 5417 5415 5415 5415 5415 5416 5419 5421 5422 5422 5422 5423 5422 5423 5425 5427 5426 5425 5426 5428 5430 5433 5436 5440 5445 5448 5451 5455 5458 5460 5461 5464 5466 5468 5471
5546 5542 5537 5530 5524 5516 5507 5497 5487 5476 5467 5458 5450 5442 5436 5429 5422 5418 5415 5413 5413 5413 5412 5413 5415 5417 5420 5420 5421 5421 5422 5423 5423 5425 5428 5429 5430 5430 5433 5436 5438 5441 5444 5447 5450 5454 5459 5460 5462 5465 5467 5470 5472 5475
5537 5532 5526 5519 5511 5503 5493 5484 5475 5465 5455 5447 5441 5434 5428 5422 5417 5412 5410 5408 5409 5410 5410 5411 5412 5415 5418 5419 5420 5420 5421 5423 5424 5427 5429 5431 5433 5433 5436 5439 5441 5445 5448 5451 5454 5456 5459 5462 5464 5467 5470 5472 5474 5477
5526 5521 5514 5507 5499 5492 5483 5475 5464 5455 5445 5438 5433 5427 5422 5416 5410 5406 5404 5403 5406 5407 5407 5408 5411 5413 5416 5418 5419 5419 5421 5423 5425 5428 5431 5434 5435 5437 5438 5442 5444 5447 5450 5454 5457 5459 5462 5464 5466 5468 5470 5472 5475 5477
5516 5509 5504 5496 5488 5480 5472 5464 5454 5445 5438 5432 5426 5419 5414 5409 5405 5402 5400 5401 5403 5404 5405 5407 5409 5411 5414 5416 5418 5419 5421 5423 5426 5429 5432 5434 5436 5438 5441 5443 5446 5449 5452 5455 5457 5459 5462 5464 5466 5468 5470 5472 5474 5476
5506 5500 5493 5486 5478 5470 5462 5453 5445 5439 5431 5426 5419 5413 5408 5404 5401 5399 5398 5399 5400 5402 5403 5405 5407 5409 5412 5415 5417 5418 5421 5423 5426 5430 5432 5435 5437 5439 5441 5444 5447 5450 5453 5455 5457 5459 5461 5463 5466 5467 5469 5471 5473 5474
5496 5490 5482 5476 5468 5461 5454 5445 5438 5429 5423 5417 5412 5408 5403 5400 5398 5396 5395 5396 5398 5399 5401 5403 5405 5407 5410 5413 5415 5418 5420 5423 5426 5430 5432 5435 5437 5440 5443 5445 5448 5450 5453 5455 5457 5459 5461 5464 5465 5467 5468 5469 5470 5472
5487 5481 5473 5468 5461 5453 5446 5436 5426 5420 5415 5410 5406 5403 5400 5397 5394 5393 5391 5393 5394 5396 5398 5401 5403 5406 5409 5411 5413 5416 5420 5423 5426 5429 5432 5435 5438 5440 5442 5445 5448 5450 5453 5455 5456 5458 5459 5461 5462 5464 5466 5468 5469 5470
5476 5471 5465 5459 5452 5443 5434 5426 5421 5415 5410 5405 5401 5398 5396 5394 5392 5390 5389 5389 5392 5394 5396 5399 5401 5404 5407 5409 5412 5416 5419 5422 5425 5428 5430 5434 5437 5440 5442 5444 5446 5449 5451 5453 5454 5455 5457 5459 5461 5462 5464 5465 5465 5466
5469 5464 5458 5450 5441 5434 5427 5422 5417 5410 5405 5399 5395 5394 5393 5392 5391 5389 5388 5388 5390 5392 5394 5397 5399 5402 5405 5408 5412 5415 5418 5421 5423 5426 5428 5431 5434 5437 5440 5442 5444 5446 5448 5450 5452 5453 5455 5456 5457 5458 5459 5460 5460 5460
5459 5453 5448 5441 5435 5430 5425 5419 5412 5406 5400 5395 5392 5390 5390 5390 5389 5389 5389 5389 5389 5391 5393 5395 5398 5401 5404 5407 5409 5412 5416 5419 5422 5424 5427 5430 5432 5435 5438 5440 5442 5444 5446 5448 5449 5450 5451 5453 5454 5454 5455 5454 5454 5453
5450 5445 5441 5436 5431 5426 5420 5414 5408 5402 5397 5392 5389 5388 5387 5387 5387 5388 5388 5389 5390 5391 5392 5394 5397 5400 5402 5405 5408 5411 5414 5416 5419 5422 5424 5427 5429 5432 5434 5437 5439 5441 5443 5444 5445 5447 5448 5449 5449 5449 5448 5448 5447 5446
5443 5439 5435 5430 5426 5420 5415 5409 5404 5399 5394 5391 5387 5385 5384 5385 5385 5386 5386 5388 5389 5391 5392 5393 5395 5397 5400 5402 5405 5408 5410 5413 5415 5418 5421 5423 5426 5428 5430 5432 5434 5436 5438 5439 5440 5441 5441 5442 5442 5441 5441 5440 5439 5439
5437 5432 5428 5424 5419 5414 5409 5404 5400 5395 5392 5388 5385 5383 5382 5381 5382 5382 5383 5384 5386 5388 5390 5391 5393 5395 5397 5399 5401 5404 5406 5408 5411 5413 5416 5418 5420 5423 5425 5427 5429 5430 5432 5433 5434 5434 5435 5435 5434 5434 5433 5432 5431 5430
5429 5424 5420 5415 5411 5407 5403 5399 5395 5391 5387 5384 5381 5379 5378 5377 5377 5377 5378 5379 5381 5383 5385 5387 5389 5391 5393 5396 5398 5400 5401 5404 5406 5408 5410 5412 5415 5417 5419 5421 5423 5424 5425 5426 5427 5427 5427 5427 5427 5426 5425 5424 5423 5421
5419 5415 5411 5407 5403 5399 5395 5392 5389 5386 5382 5379 5376 5374 5373 5372 5371 5371 5371 5372 5373 5375 5378 5380 5383 5386 5388 5390 5392 5394 5396 5399 5401 5402 5404 5406 5408 5410 5412 5413 5415 5416 5418 5418 5419 5419 5419 5419 5418 5417 5416 5414 5413 5411
5409 5405 5401 5397 5394 5391 5388 5385 5382 5379 5376 5374 5371 5369 5367 5366 5365 5365 5366 5366 5367 5369 5370 5372 5376 5379 5382 5384 5386 5388 5390 5393 5394 5396 5398 5400 5402 5404 5405 5406 5408 5409 5409 5410 5410 5410 5410 5409 5408 5407 5406 5404 5402 5400
5397 5393 5390 5387 5384 5381 5379 5377 5375 5373 5370 5368 5365 5363 5361 5360 5360 5361 5362 5362 5363 5363 5363 5364 5368 5371 5374 5377 5380 5382 5384 5386 5388 5390 5391 5393 5394 5396 5397 5398 5399 5400 5400 5401 5401 5400 5400 5399 5398 5396 5395 5393 5391 5389